Location: Dallas
(32.7833°N, 96.8000°W)
Time: 13:20:04
(UTC-05:00)

N. Korean satellite - Pass Details

Date: 27 June 2021
Orbit: 451 x 498 km, 97.2° (Epoch: 30 July)

Event Time Altitude Azimuth Distance (km) Brightness Sun altitude
Rises 05:44:22 0° 35° (NE) 2,578 11.8 -7.5°
Reaches altitude 10° 05:47:22 10° 63° (ENE) 1,696 11.1 -7.0°
Maximum altitude 05:49:14 14° 94° (E) 1,488 9.9 -6.6°
Drops below altitude 10° 05:51:06 10° 125° (SE) 1,694 9.6 -6.3°
Sets 05:54:04 0° 152° (SSE) 2,572 10.2 -5.8°
